Location: ??
(35.1714°N, 128.2806°E)
Time: 15:30:58
(UTC+00:00)

Cosmos 407 Rocket - Pass Details

Date: 29 October 2020
Orbit: 743 x 787 km, 74.1° (Epoch: 30 November)

Event Time Altitude Azimuth Distance (km) Brightness Sun altitude
Rises 20:46:42 0° 205° (SSW) 3,165 6.5 -12.7°
Reaches altitude 10° 20:49:04 10° 209° (SSW) 2,247 5.7 -12.2°
Maximum altitude 20:54:05 60° 289° (WNW) 850 3.4 -11.2°
Drops below altitude 10° 20:59:10 10° 10° (N) 2,276 6.0 -10.2°
Sets 21:01:35 0° 14° (NNE) 3,210 6.8 -9.7°
